DW0226 Weather Reports


Display with metric or nautical units.
time (UTC)temp
F
wind
direction
speed
MPH
gust
MPH
rain 1hr
in
rain 24hr
in
rain mn
in
humidity
%
barometer
mb
20260905093519 71 0.0 0.0 0.00 0.01 0.00 94 1008.6
20260905092517 71 0.0 0.0 0.00 0.01 0.00 94 1008.7
20260905091539 71 0.0 0.0 0.00 0.01 0.00 93 1008.6
20260905091017 71 0.0 0.0 0.00 0.01 0.00 93 1008.6
20260905090016 72 0.0 0.0 0.00 0.01 0.00 93 1008.8
20260905085017 72 0.0 0.0 0.00 0.01 0.00 93 1008.7
20260905084017 72 0.0 0.0 0.00 0.01 0.00 93 1008.8
20260905083517 73 0.0 0.0 0.00 0.01 0.00 94 1008.7
20260905082517 73 0.0 0.0 0.00 0.01 0.00 94 1008.8
20260905081517 73 0.0 0.0 0.00 0.01 0.00 93 1008.9
20260905080537 73 0.0 2.0 0.00 0.01 0.00 93 1009.0
20260905075518 74 0.0 2.0 0.00 0.01 0.00 93 1009.0
20260905074540 74 293 2.0 4.0 0.00 0.01 0.00 93 1009.2
20260905073516 74 270 2.0 4.0 0.00 0.01 0.00 93 1009.2
20260905072518 74 293 1.0 3.0 0.00 0.01 0.00 93 1009.1
20260905071519 74 293 2.0 5.0 0.00 0.01 0.00 93 1009.3
20260905070517 74 293 2.0 5.0 0.00 0.01 0.00 93 1009.3
20260905065517 74 293 3.0 6.0 0.00 0.01 0.00 94 1009.4
20260905064517 74 270 2.0 4.0 0.00 0.01 0.00 94 1009.5
20260905063517 74 248 2.0 5.0 0.00 0.01 0.00 94 1009.6
20260905062537 74 270 2.0 5.0 0.00 0.01 0.00 93 1009.8
20260905061517 74 248 2.0 3.0 0.00 0.01 0.00 93 1009.8
20260905060517 74 270 2.0 3.0 0.00 0.01 0.00 93 1009.8
20260905055517 74 248 1.0 3.0 0.00 0.01 0.00 92 1010.0
20260905054517 74 270 1.0 3.0 0.00 0.02 0.00 92 1010.0
20260905053516 75 270 3.0 7.0 0.00 0.15 0.00 92 1010.2
20260905052517 75 270 2.0 5.0 0.00 0.29 0.00 92 1010.4
20260905051517 75 270 2.0 4.0 0.00 0.96 0.00 92 1010.5
20260905050517 75 270 2.0 4.0 0.00 1.50 0.00 91 1010.8
20260905045518 76 248 2.0 4.0 0.00 1.82 0.00 91 1010.8
20260905044518 76 270 2.0 5.0 0.00 1.84 0.00 91 1010.9
20260905043517 76 270 3.0 5.0 0.00 1.84 0.00 91 1010.9
20260905042517 76 270 1.0 4.0 0.00 1.84 0.00 91 1011.0
20260905041517 76 270 1.0 4.0 0.00 1.86 0.00 91 1011.0
20260905040517 75 270 1.0 4.0 0.00 1.86 0.00 92 1011.0
20260905035516 75 248 1.0 3.0 0.00 1.86 1.86 92 1011.0
20260905034516 75 0.0 1.0 0.00 1.97 1.86 92 1010.9
20260905033536 75 293 1.0 4.0 0.00 2.29 1.86 93 1011.0
20260905032516 75 270 1.0 3.0 0.00 2.76 1.86 94 1011.0
20260905031500 74 270 1.0 3.0 0.00 3.07 1.86 95 1010.9
20260905031036 74 270 1.0 3.0 0.00 3.10 1.86 95 1011.1
20260905030016 73 0.0 0.0 0.00 3.10 1.86 94 1011.1
20260905025017 73 0.0 0.0 0.00 3.10 1.86 94 1011.1
20260905024016 73 0.0 0.0 0.00 3.10 1.86 94 1011.1
20260905023036 73 0.0 0.0 0.00 3.10 1.86 93 1011.3
20260905022017 73 0.0 0.0 0.00 3.10 1.86 93 1011.2
20260905021016 74 0.0 0.0 0.00 3.10 1.86 93 1011.4
20260905020016 74 0.0 0.0 0.00 3.10 1.86 92 1011.1
20260905015016 74 0.0 0.0 0.00 3.10 1.86 92 1011.0
20260905014036 74 0.0 0.0 0.00 3.10 1.86 91 1010.8
20260905013042 74 0.0 0.0 0.00 3.10 1.86 91 1011.1
20260905012017 75 0.0 0.0 0.00 3.10 1.86 90 1011.0
20260905011017 75 0.0 0.0 0.00 3.10 1.86 90 1010.6
20260905010016 76 0.0 0.0 0.00 3.10 1.86 89 1010.6
20260905005036 76 0.0 0.0 0.00 3.10 1.86 88 1010.7
20260905004016 77 0.0 0.0 0.00 3.10 1.86 87 1010.6
20260905003016 77 0.0 0.0 0.00 3.10 1.86 86 1010.7
20260905002016 77 270 1.0 3.0 0.00 3.10 1.86 86 1010.7
20260905001036 76 270 1.0 3.0 0.00 3.10 1.86 87 1010.8
20260905000016 77 0.0 0.0 0.00 3.10 1.86 87 1010.6
20260904235016 77 0.0 2.0 0.00 3.10 1.86 87 1010.3
20260904234017 76 0.0 2.0 0.00 3.10 1.86 87 1010.1
20260904233016 76 293 1.0 3.0 0.00 3.10 1.86 89 1010.2
20260904232015 77 0.0 0.0 0.00 3.10 1.86 90 1010.1
20260904231016 78 0.0 1.0 0.00 3.10 1.86 89 1009.9
20260904230017 79 0.0 0.0 0.00 3.10 1.86 89 1009.8
20260904225016 79 0.0 0.0 0.00 3.10 1.86 88 1010.0
20260904224016 80 0.0 0.0 0.00 3.10 1.86 86 1010.2
20260904223016 81 0.0 1.0 0.00 3.10 1.86 84 1010.6
20260904222017 81 0.0 1.0 0.00 3.10 1.86 82 1010.7
20260904221016 82 0.0 1.0 0.00 3.10 1.86 82 1011.0
20260904220015 83 270 2.0 4.0 0.00 3.10 1.86 82 1011.3
20260904215018 84 315 1.0 6.0 0.00 3.10 1.86 79 1011.2
20260904214516 85 0.0 6.0 0.00 3.10 1.86 83 1011.3
20260904213624 85 0.0 0.0 0.00 3.10 1.86 83 1011.2
20260904212516 86 0.0 0.0 0.00 3.10 1.86 82 1010.9
20260904211537 86 0.0 0.0 0.00 3.10 1.86 81 1010.5
20260904210517 87 0.0 2.0 0.00 3.10 1.86 77 1010.3
20260904205541 87 0.0 0.0 0.00 3.10 1.86 79 1011.0
20260904204516 87 0.0 0.0 0.00 3.10 1.86 79 1010.6
20260904203516 87 0.0 0.0 0.00 3.10 1.86 79 1010.7
20260904202516 87 0.0 0.0 0.00 3.10 1.86 77 1010.6
20260904201516 88 0.0 0.0 0.00 3.10 1.86 74 1010.4
20260904200519 87 293 1.0 3.0 0.00 3.10 1.86 72 1010.7
20260904195516 88 293 2.0 4.0 0.00 3.10 1.86 70 1011.0
20260904194517 89 293 2.0 5.0 0.00 3.10 1.86 70 1011.0
20260904193517 89 270 3.0 7.0 0.00 3.10 1.86 70 1011.0
20260904192515 90 293 2.0 5.0 0.00 3.10 1.86 67 1011.0
20260904191517 89 293 3.0 6.0 0.00 3.10 1.86 69 1011.2
20260904190515 89 315 2.0 7.0 0.00 3.10 1.86 66 1011.3
20260904185516 89 293 3.0 6.0 0.00 3.10 1.86 68 1011.6
20260904184517 89 293 4.0 6.0 0.00 3.10 1.86 72 1011.7
20260904183536 88 315 3.0 7.0 0.00 3.10 1.86 71 1011.8
20260904182519 89 270 3.0 7.0 0.00 3.10 1.86 72 1012.0
20260904181516 88 293 3.0 7.0 0.00 3.10 1.86 71 1012.1
20260904180516 88 270 3.0 7.0 0.00 3.10 1.86 71 1012.1
20260904175517 88 270 4.0 7.0 0.00 3.10 1.86 71 1012.2
20260904174537 88 293 4.0 9.0 0.00 3.10 1.86 72 1012.3
20260904173516 88 293 2.0 6.0 0.00 3.10 1.86 72 1012.2
20260904172516 88 315 2.0 6.0 0.00 3.10 1.86 70 1012.3
20260904171520 88 0.0 2.0 0.00 3.10 1.86 75 1012.4
20260904170516 87 293 3.0 10.0 0.00 3.10 1.86 71 1012.4
20260904165516 87 293 4.0 9.0 0.00 3.10 1.86 72 1012.4
20260904164516 87 293 3.0 5.0 0.00 3.10 1.86 74 1012.4
20260904163517 87 315 3.0 10.0 0.00 3.10 1.86 74 1012.7
20260904162518 87 315 2.0 6.0 0.00 3.10 1.86 72 1012.6
20260904161539 87 293 1.0 7.0 0.00 3.10 1.86 78 1012.7
20260904160520 86 293 3.0 6.0 0.00 3.10 1.86 76 1012.7
20260904155552 85 293 5.0 9.0 0.00 3.10 1.86 76 1012.9
20260904154536 85 293 4.0 9.0 0.00 3.10 1.86 78 1012.8
20260904153536 85 293 3.0 9.0 0.00 3.10 1.86 77 1013.0
20260904152537 84 293 3.0 7.0 0.00 3.10 1.86 80 1013.0
20260904151516 84 293 2.0 5.0 0.00 3.10 1.86 80 1013.0
20260904150517 84 293 2.0 7.0 0.00 3.10 1.86 78 1012.9
20260904145516 83 293 3.0 6.0 0.00 3.10 1.86 80 1013.0
20260904144516 83 293 2.0 5.0 0.00 3.10 1.86 78 1013.0
20260904143516 83 315 3.0 6.0 0.00 3.10 1.86 78 1013.1
20260904142516 82 0.0 3.0 0.00 3.10 1.86 84 1013.2
20260904141537 81 293 1.0 5.0 0.00 3.10 1.86 87 1013.2
20260904140517 80 0.0 2.0 0.00 3.10 1.86 93 1013.0
20260904135515 79 0.0 2.0 0.00 3.10 1.86 95 1012.9
20260904134515 79 0.0 0.0 0.00 3.10 1.86 97 1013.1
20260904133516 78 0.0 2.0 0.00 3.10 1.86 97 1012.9
20260904132515 78 0.0 1.0 0.00 3.10 1.86 98 1013.1
20260904131556 78 0.0 0.0 0.00 3.10 1.86 98 1013.1
20260904130516 77 0.0 1.0 0.00 3.10 1.86 97 1013.0
20260904125517 78 0.0 0.0 0.00 3.10 1.86 98 1013.2
20260904124516 77 0.0 2.0 0.00 3.10 1.86 98 1013.2
20260904123516 77 0.0 0.0 0.00 3.10 1.86 99 1013.3
20260904122557 76 0.0 0.0 0.01 3.10 1.86 98 1013.2
20260904121516 76 0.0 0.0 0.01 3.10 1.86 99 1013.3
20260904120517 76 0.0 0.0 0.01 3.10 1.86 99 1013.6
20260904115516 75 0.0 0.0 0.01 3.10 1.86 99 1013.5
20260904114539 74 0.0 0.0 0.01 3.10 1.86 99 1013.2
20260904113539 73 0.0 0.0 0.01 3.10 1.86 99 1013.2
20260904112516 72 0.0 0.0 0.00 3.09 1.85 98 1013.3
20260904111516 72 0.0 0.0 0.00 3.09 1.85 98 1012.7
20260904110516 72 0.0 0.0 0.00 3.09 1.85 98 1012.5
20260904105559 71 0.0 0.0 0.00 3.09 1.85 98 1012.3
20260904104516 71 0.0 0.0 0.00 3.09 1.85 98 1012.2
20260904103516 71 0.0 0.0 0.00 3.09 1.85 97 1012.2
20260904102516 71 0.0 0.0 0.00 3.09 1.85 97 1012.1
20260904101536 71 0.0 0.0 0.00 3.09 1.85 97 1012.2
20260904100516 71 0.0 0.0 0.00 3.09 1.85 97 1012.0
20260904095536 72 0.0 0.0 0.00 3.09 1.85 97 1011.9
20260904094515 72 0.0 0.0 0.00 3.09 1.85 97 1011.9